Content
SEND FEEDBACK

Daily
Averages
Monthly
Summary
United States of America

UMATAC, GUAM


Home > North America > United States > Guam
Elevation: 58 meters     Latitude: 13 17N     Longitude: 144 40E

WEATHER
 
SELECT A DAY
Number of Records: 356,513;   Date Range: 1/1/95 - 12/18/14
 
SHARE

PRINT THIS DATA

[ ← Previous Day ]
WEATHER ALMANAC - 5 MARCH, 2013
[ Next Day → ]
[ °F ]   °C
Weather ElementAverageHighLow
Temperature26.6 °C30 °C (12:53 pm)24.7 °C (11:55 pm)
Dewpoint23.9 °C25 °C (12:57 am)22.5 °C (11:55 pm)
Humidity85.8 %94 % (12:57 am)70 % (12:53 pm)
Barometer1011.5 hPa1013.2 hPa (8:55 pm)1010.2 hPa (3:55 am)
Wind Speed20.3 km/h29.6 km/h (5:20 pm)
Wind Gust38.9 km/h (12:13 pm)
Weather ElementAverage
Visibility16.1 km
Wind DirectionENE (70.9 °)

Weather ElementTotal
Precipitation---
Cooling Degree Days9.1 (Base 18.3)
Growing Degree Days17.4 (Base 10)
Averaged from 127 records on 5 March, 2013
WEATHER CONDITIONS BREAKOUT
WIND DIRECTION BREAKOUT
WEATHER BY HOUR - 5 MARCH, 2013
[ °F ]   °C
Local TimeTemperatureDewpointHumidityBarometerVisibilityWind DirectionWind SpeedGust SpeedPrecipitationEventsConditions
12:55 AM25.8 °C24.6 °C93 %1011.5 hPa16.1 kmENE (70°)14.8 km/hMostly Cloudy
12:57 AM26 °C25 °C94 %1011.5 hPa16.1 kmENE (70°)18.5 km/hMostly Cloudy
1:03 AM26 °C25 °C94 %1011.5 hPa16.1 kmEast (80°)18.5 km/hMostly Cloudy
1:08 AM26 °C24 °C89 %1011.5 hPa16.1 kmEast (80°)16.7 km/hOvercast
1:09 AM26 °C24 °C89 %1011.2 hPa16.1 kmENE (70°)16.7 km/hOvercast
1:11 AM26 °C24 °C89 %1011.2 hPa16.1 kmENE (70°)18.5 km/hOvercast
1:13 AM26 °C25 °C94 %1011.2 hPa16.1 kmENE (70°)16.7 km/hOvercast
1:14 AM26 °C25 °C94 %1011.5 hPa16.1 kmENE (70°)16.7 km/hOvercast
1:22 AM26 °C25 °C94 %1011.2 hPa16.1 kmEast (80°)18.5 km/hOvercast
1:27 AM26 °C24 °C89 %1011.2 hPa16.1 kmENE (70°)18.5 km/hOvercast
1:30 AM26 °C24 °C89 %1011.2 hPa16.1 kmENE (70°)18.5 km/hOvercast
1:31 AM26 °C24 °C89 %1011.2 hPa16.1 kmEast (80°)18.5 km/hOvercast
1:36 AM26 °C24 °C89 %1011.2 hPa16.1 kmENE (70°)18.5 km/hOvercast
1:38 AM26 °C24 °C89 %1011.2 hPa16.1 kmENE (70°)18.5 km/hOvercast
1:44 AM26 °C24 °C89 %1011.2 hPa16.1 kmENE (70°)16.7 km/hMostly Cloudy
1:55 AM25.6 °C24.2 °C92 %1011.2 hPa16.1 kmENE (70°)18.5 km/hOvercast
1:59 AM26 °C24 °C89 %1011.2 hPa16.1 kmENE (70°)18.5 km/hMostly Cloudy
2:38 AM25 °C24 °C94 %1010.8 hPa16.1 kmENE (60°)14.8 km/hMostly Cloudy
2:52 AM26 °C24 °C89 %1010.8 hPa16.1 kmENE (60°)22.2 km/hMostly Cloudy
2:55 AM25.6 °C24.3 °C92 %1010.8 hPa16.1 kmENE (60°)22.2 km/hOvercast
3:24 AM25 °C24 °C94 %1010.5 hPa16.1 kmENE (70°)16.7 km/hScattered Clouds
3:25 AM25 °C24 °C94 %1010.5 hPa16.1 kmENE (70°)16.7 km/hMostly Cloudy
3:27 AM25 °C24 °C94 %1010.5 hPa16.1 kmENE (70°)14.8 km/hScattered Clouds
3:39 AM25 °C24 °C94 %1010.5 hPa16.1 kmENE (60°)16.7 km/hMostly Cloudy
3:46 AM25 °C24 °C94 %1010.5 hPa16.1 kmENE (60°)16.7 km/hScattered Clouds
3:55 AM25.3 °C24 °C92 %1010.2 hPa16.1 kmENE (70°)16.7 km/hScattered Clouds
4:07 AM25 °C24 °C94 %1010.2 hPa16.1 kmENE (60°)16.7 km/hMostly Cloudy
4:10 AM25 °C24 °C94 %1010.2 hPa16.1 kmENE (60°)16.7 km/hMostly Cloudy
4:21 AM25 °C24 °C94 %1010.2 hPa16.1 kmENE (60°)22.2 km/hMostly Cloudy
4:29 AM25 °C24 °C94 %1010.2 hPa16.1 kmENE (60°)18.5 km/hMostly Cloudy
4:41 AM26 °C24 °C89 %1010.2 hPa16.1 kmENE (60°)14.8 km/hLight Drizzle
4:50 AM26 °C24 °C89 %1010.2 hPa16.1 kmENE (60°)16.7 km/hOvercast
4:55 AM25.6 °C24.6 °C94 %1010.2 hPa16.1 kmEast (80°)18.5 km/h0 mmOvercast
5:02 AM26 °C24 °C89 %1010.2 hPa16.1 kmENE (60°)22.2 km/hMostly Cloudy
5:14 AM26 °C24 °C89 %1010.2 hPa16.1 kmENE (60°)22.2 km/hOvercast
5:19 AM26 °C24 °C89 %1010.2 hPa16.1 kmNE (50°)18.5 km/hOvercast
5:22 AM26 °C24 °C89 %1010.2 hPa16.1 kmNE (50°)16.7 km/hOvercast
5:25 AM26 °C24 °C89 %1010.2 hPa16.1 kmNE (50°)18.5 km/hMostly Cloudy
5:35 AM25 °C24 °C94 %1010.2 hPa16.1 kmENE (60°)18.5 km/hMostly Cloudy
5:36 AM25 °C24 °C94 %1010.5 hPa16.1 kmENE (60°)18.5 km/hMostly Cloudy
5:38 AM25 °C24 °C94 %1010.5 hPa16.1 kmENE (60°)20.4 km/hMostly Cloudy
5:43 AM25 °C24 °C94 %1010.5 hPa16.1 kmENE (60°)20.4 km/hMostly Cloudy
5:48 AM25 °C24 °C94 %1010.5 hPa16.1 kmENE (60°)16.7 km/hMostly Cloudy
5:50 AM26 °C24 °C89 %1010.5 hPa16.1 kmENE (60°)20.4 km/hMostly Cloudy
5:55 AM25.5 °C24 °C91 %1010.5 hPa16.1 kmENE (60°)20.4 km/hMostly Cloudy
5:56 AM25 °C24 °C94 %1010.5 hPa16.1 kmENE (60°)22.2 km/hMostly Cloudy
5:58 AM25 °C24 °C94 %1010.5 hPa16.1 kmENE (60°)20.4 km/hMostly Cloudy
6:03 AM25 °C24 °C94 %1010.5 hPa16.1 kmENE (60°)18.5 km/hMostly Cloudy
6:18 AM25 °C24 °C94 %1010.8 hPa16.1 kmENE (70°)18.5 km/hMostly Cloudy
6:21 AM25 °C24 °C94 %1010.8 hPa16.1 kmENE (70°)20.4 km/hMostly Cloudy
6:24 AM25 °C24 °C94 %1010.8 hPa16.1 kmENE (70°)18.5 km/hMostly Cloudy
6:44 AM25 °C24 °C94 %1011.2 hPa16.1 kmENE (60°)20.4 km/hMostly Cloudy
6:55 AM25.7 °C23.9 °C90 %1011.2 hPa16.1 kmNE (50°)22.2 km/hMostly Cloudy
7:08 AM26 °C24 °C89 %1011.2 hPa16.1 kmENE (60°)20.4 km/hMostly Cloudy
7:13 AM26 °C24 °C89 %1011.2 hPa16.1 kmENE (60°)22.2 km/hMostly Cloudy
7:15 AM26 °C24 °C89 %1011.2 hPa16.1 kmENE (60°)24.1 km/hMostly Cloudy
7:20 AM26 °C24 °C89 %1011.5 hPa16.1 kmENE (60°)22.2 km/hScattered Clouds
7:21 AM26 °C24 °C89 %1011.5 hPa16.1 kmENE (60°)22.2 km/hMostly Cloudy
7:39 AM26 °C24 °C89 %1011.5 hPa16.1 kmENE (60°)22.2 km/hMostly Cloudy
7:44 AM26 °C24 °C89 %1011.9 hPa16.1 kmENE (70°)20.4 km/hMostly Cloudy
7:50 AM26 °C24 °C89 %1011.9 hPa16.1 kmEast (80°)25.9 km/hMostly Cloudy
7:51 AM26 °C24 °C89 %1011.9 hPa16.1 kmENE (70°)24.1 km/hScattered Clouds
7:55 AM26.5 °C23.9 °C86 %1011.9 hPa16.1 kmENE (70°)22.2 km/hScattered Clouds
8:00 AM27 °C24 °C84 %1011.9 hPa16.1 kmEast (80°)22.2 km/hMostly Cloudy
8:04 AM27 °C24 °C84 %1011.9 hPa16.1 kmENE (60°)20.4 km/hMostly Cloudy
8:08 AM27 °C24 °C84 %1011.9 hPa16.1 kmEast (80°)22.2 km/hMostly Cloudy
8:09 AM27 °C24 °C84 %1011.9 hPa16.1 kmEast (80°)24.1 km/hMostly Cloudy
8:14 AM27 °C24 °C84 %1011.9 hPa16.1 kmEast (80°)22.2 km/hMostly Cloudy
8:16 AM27 °C24 °C84 %1011.9 hPa16.1 kmEast (80°)24.1 km/hMostly Cloudy
8:20 AM27 °C24 °C84 %1011.9 hPa16.1 kmENE (70°)24.1 km/hMostly Cloudy
8:24 AM27 °C24 °C84 %1012.2 hPa16.1 kmEast (80°)25.9 km/hScattered Clouds
8:55 AM27.6 °C23.9 °C80 %1012.2 hPa16.1 kmENE (70°)22.2 km/hClear
9:31 AM28 °C24 °C79 %1012.5 hPa16.1 kmENE (60°)20.4 km/hMostly Cloudy
9:33 AM28 °C24 °C79 %1012.9 hPa16.1 kmENE (60°)24.1 km/hScattered Clouds
9:39 AM28 °C24 °C79 %1012.5 hPa16.1 kmENE (60°)22.2 km/hMostly Cloudy
9:55 AM28.5 °C24.5 °C79 %1012.9 hPa16.1 kmEast (80°)24.1 km/hMostly Cloudy
9:56 AM28 °C24 °C79 %1012.9 hPa16.1 kmEast (80°)24.1 km/hMostly Cloudy
10:02 AM28 °C24 °C79 %1012.9 hPa16.1 kmENE (70°)20.4 km/hMostly Cloudy
10:17 AM29 °C25 °C79 %1012.9 hPa16.1 kmEast (80°)24.1 km/hMostly Cloudy
10:18 AM29 °C25 °C79 %1012.9 hPa16.1 kmENE (70°)25.9 km/hMostly Cloudy
10:19 AM29 °C25 °C79 %1012.9 hPa16.1 kmENE (70°)25.9 km/hMostly Cloudy
10:28 AM29 °C25 °C79 %1012.9 hPa16.1 kmENE (70°)20.4 km/hScattered Clouds
10:30 AM29 °C25 °C79 %1012.9 hPa16.1 kmENE (70°)25.9 km/hMostly Cloudy
10:34 AM29 °C25 °C79 %1012.9 hPa16.1 kmEast (80°)20.4 km/hScattered Clouds
10:35 AM29 °C25 °C79 %1012.9 hPa16.1 kmEast (90°)20.4 km/hMostly Cloudy
10:37 AM29 °C25 °C79 %1012.9 hPa16.1 kmEast (80°)22.2 km/hScattered Clouds
10:55 AM29.3 °C24.4 °C75 %1012.5 hPa16.1 kmEast (80°)24.1 km/hScattered Clouds
11:27 AM29 °C25 °C79 %1012.2 hPa16.1 kmNE (50°)25.9 km/hMostly Cloudy
11:55 AM29.2 °C24.7 °C77 %1011.9 hPa16.1 kmENE (60°)20.4 km/hMostly Cloudy
12:13 PM28 °C23 °C74 %1011.9 hPa16.1 kmEast (90°)24.1 km/h38.9 km/hRainLight Rain
12:18 PM27 °C24 °C84 %1011.9 hPa14.5 kmEast (80°)24.1 km/h38.9 km/hRainLight Rain
12:24 PM28 °C24 °C79 %1011.9 hPa16.1 kmEast (90°)22.2 km/hRainLight Rain
12:25 PM28 °C24 °C79 %1011.9 hPa16.1 kmEast (90°)25.9 km/hScattered Clouds
12:47 PM29 °C24 °C74 %1011.5 hPa16.1 kmEast (90°)27.8 km/h35.2 km/hMostly Cloudy
12:52 PM29 °C24 °C74 %1011.5 hPa16.1 kmEast (90°)25.9 km/hScattered Clouds
12:53 PM30 °C24 °C70 %1011.5 hPa16.1 kmEast (90°)27.8 km/hMostly Cloudy
12:55 PM29.7 °C24.1 °C72 %1011.5 hPa16.1 kmEast (90°)27.8 km/h0 mmScattered Clouds
1:55 PM29.1 °C24.2 °C75 %1010.8 hPa16.1 kmEast (90°)24.1 km/h31.5 km/hMostly Cloudy
1:56 PM29 °C24 °C74 %1011.2 hPa16.1 kmEast (90°)25.9 km/h31.5 km/hMostly Cloudy
2:31 PM30 °C24 °C70 %1010.5 hPa16.1 kmEast (100°)20.4 km/hMostly Cloudy
2:36 PM29 °C23 °C70 %1010.5 hPa16.1 kmEast (100°)20.4 km/hScattered Clouds
2:55 PM29.1 °C23.5 °C72 %1010.8 hPa16.1 kmEast (90°)22.2 km/hPartly Cloudy
3:32 PM29 °C23 °C70 %1010.8 hPa16.1 kmEast (90°)22.2 km/hMostly Cloudy
3:55 PM28.4 °C23.2 °C73 %1010.5 hPa16.1 kmENE (70°)18.5 km/hMostly Cloudy
4:17 PM28 °C23 °C74 %1010.8 hPa16.1 kmEast (80°)18.5 km/hMostly Cloudy
4:26 PM28 °C23 °C74 %1010.8 hPa16.1 kmENE (70°)20.4 km/hMostly Cloudy
4:31 PM28 °C23 °C74 %1010.8 hPa16.1 kmENE (70°)20.4 km/hMostly Cloudy
4:55 PM27.4 °C23.4 °C79 %1011.2 hPa16.1 kmEast (80°)14.8 km/hMostly Cloudy
5:08 PM27 °C23 °C79 %1011.2 hPa16.1 kmENE (70°)18.5 km/hMostly Cloudy
5:20 PM27 °C23 °C79 %1011.5 hPa12.9 kmEast (90°)29.6 km/hRainLight Rain
5:34 PM26 °C23 °C83 %1011.5 hPa16.1 kmEast (90°)14.8 km/hMostly Cloudy
5:38 PM26 °C23 °C83 %1011.5 hPa16.1 kmEast (90°)14.8 km/hMostly Cloudy
5:55 PM25.9 °C23.3 °C85 %1011.5 hPa16.1 kmEast (90°)16.7 km/h0 mmMostly Cloudy
6:55 PM25.9 °C23 °C84 %1012.2 hPa16.1 kmEast (80°)16.7 km/hOvercast
7:55 PM25.8 °C22.8 °C83 %1012.5 hPa16.1 kmEast (80°)18.5 km/hMostly Cloudy
8:55 PM25.4 °C23.2 °C88 %1013.2 hPa16.1 kmEast (80°)18.5 km/hPartly Cloudy
9:46 PM25 °C23 °C89 %1013.2 hPa16.1 kmENE (60°)16.7 km/hMostly Cloudy
9:47 PM25 °C23 °C89 %1013.2 hPa16.1 kmENE (60°)16.7 km/hScattered Clouds
9:55 PM25.3 °C23.2 °C88 %1013.2 hPa16.1 kmENE (60°)16.7 km/hScattered Clouds
10:21 PM25 °C23 °C89 %1013.2 hPa16.1 kmENE (60°)18.5 km/hMostly Cloudy
10:44 PM25 °C23 °C89 %1013.2 hPa16.1 kmENE (60°)16.7 km/hMostly Cloudy
10:50 PM25 °C23 °C89 %1013.2 hPa16.1 kmENE (60°)16.7 km/hMostly Cloudy
10:55 PM25.4 °C22.9 °C86 %1013.2 hPa16.1 kmENE (60°)16.7 km/hMostly Cloudy
11:04 PM25 °C23 °C89 %1013.2 hPa16.1 kmEast (80°)18.5 km/hMostly Cloudy
11:12 PM25 °C23 °C89 %1013.2 hPa16.1 kmENE (70°)20.4 km/hMostly Cloudy
11:15 PM25 °C23 °C89 %1013.2 hPa16.1 kmENE (70°)14.8 km/hScattered Clouds
11:55 PM24.7 °C22.5 °C87 %1012.9 hPa16.1 kmENE (70°)16.7 km/hClear
Hourly data recorded from PGUA, located 0 kilometers away from Umatac, Guam







STORIES FROM OUR PARTNERS